Location: Liberec
(50.7663°N, 15.0543°E)
Time: 19:20:01
(UTC+01:00)

ISS - Visible Passes

Search period start: 28 March 2020 00:00
Search period end: 07 April 2020 01:00
Orbit: 417 x 423 km, 51.6° (Epoch: 29 March)

Date Brightness Start Highest point End Pass type
(mag) Time Alt. Az. Time Alt. Az. Time Alt. Az.
28 Mar -3.8 19:55:54 10° W 19:59:17 81° N 20:00:42 32° E visible
28 Mar -1.0 21:32:48 10° W 21:33:40 16° W 21:33:40 16° W visible
29 Mar -3.7 20:08:32 10° W 20:11:55 75° N 20:15:13 10° E visible
29 Mar -3.1 21:45:25 10° W 21:48:12 48° WSW 21:48:12 48° WSW visible
30 Mar -3.7 20:58:01 10° WNW 21:01:23 72° SSW 21:02:43 33° ESE visible
30 Mar -0.8 22:35:15 10° W 22:35:41 12° W 22:35:41 12° W visible
31 Mar -3.8 20:10:38 10° WNW 20:14:01 88° S 20:17:16 11° ESE visible
31 Mar -2.3 21:47:38 10° W 21:50:14 28° SW 21:50:14 28° SW visible
01 Apr -2.9 21:00:08 10° W 21:03:19 40° SSW 21:04:47 25° SSE visible
02 Apr -3.3 20:12:42 10° W 20:15:59 54° SSW 20:19:17 10° SE visible
02 Apr -1.3 21:50:27 10° WSW 21:52:15 14° SW 21:52:21 14° SW visible
03 Apr -1.7 21:02:31 10° W 21:05:03 20° SW 21:06:59 13° S visible
04 Apr -2.1 20:14:51 10° W 20:17:48 28° SSW 20:20:43 10° SSE visible
06 Apr -1.1 20:17:35 10° WSW 20:19:22 14° SW 20:21:09 10° S visible
